AirNav   Everest Fuels
 
 435 users online  

1MN4 Wildhurst Pines Seaplane Base
Excelsior, Minnesota, USA

GOING TO EXCELSIOR?


FAA INFORMATION EFFECTIVE 21 MAY 2020

Location

FAA Identifier: 1MN4
Lat/Long: 44-55-03.0700N 093-36-29.5300W
44-55.051167N 093-36.492167W
44.9175194,-93.6082028
(estimated)
Elevation: 928 ft. / 283 m
From city: 2 miles NW of EXCELSIOR, MN
Time zone: UTC -5 (UTC -6 during Standard Time)
Zip code: 55384

Seaplane Base Operations

Seaplane Base use: Private use. Permission required prior to landing
Activation date: 03/2017
Control tower: no
ARTCC: MINNEAPOLIS CENTER
FSS: PRINCETON FLIGHT SERVICE STATION
Attendance: 
Segmented circle: no

Seaplane Base Communications

WX ASOS at FCM (8 nm SE): 124.9 (952-941-4156)
WX ASOS at MIC (14 nm NE): 125.7 (763-531-2343)
WX ASOS at MSP (17 nm E): 135.35 (612-713-4174)
WX AWOS-3 at CFE (18 nm NW): 120.45 (763-684-0762)

Nearby radio navigation aids

VOR radial/distance  VOR name  Freq  Var
FCMr307/9.0FLYING CLOUD VOR/DME117.7001E
MSPr273/15.8MINNEAPOLIS VOR/DME115.3002E
GEPr210/16.9GOPHER VORTAC117.3006E
FGTr307/25.0FARMINGTON VORTAC115.7006E
DWNr099/37.3DARWIN VORTAC109.0007E

 
NDB name  Hdg/Dist  Freq  Var  ID
GLENCOE062/22.440703EGYL --. -.-- .-..
HOPEY272/28.440003EPPI .--. .--. ..
PRINCETON177/38.836803EPNM .--. -. --

Seaplane Base Services

Runway Information

Runway W/E

Dimensions: 4600 x 200 ft. / 1402 x 61 m
Surface: water
RUNWAY E  RUNWAY W
Traffic pattern: leftleft

Seaplane Base Ownership and Management from official FAA records

Ownership: Privately-owned
Owner: MICHAEL SMITH
140 WILDHURST ROAD
TONKA BAY, MN 55331
Phone 612-636-8936
Manager: MICHAEL SMITH
140 WILDHURST ROAD
TONKA BAY, MN 55331
Phone 612-636-8936

Additional Remarks

FOR CD CTC MINNEAPOLIS ARTCC AT 651-463-5588.

Instrument Procedures

There are no published instrument procedures at 1MN4.

Some nearby airports with instrument procedures:

KFCM - Flying Cloud Airport (8 nm SE)
KMIC - Crystal Airport (14 nm NE)
KMSP - Minneapolis-St Paul International/Wold-Chamberlain Airport (17 nm E)
KCFE - Buffalo Municipal Airport (18 nm NW)
KANE - Anoka County-Blaine Airport (Janes Field) (22 nm NE)
 
Loc | Ops | Rwys | IFR | FBO | Links
Com | Nav | Svcs | Stats | Notes
Aerial photo
No photo
 
Airport distance calculator
Flying to Wildhurst Pines Seaplane Base? Find the distance to fly.

From to 1MN4

Sunrise and sunset
Times for 01-Jun-2020
 Local
(UTC-5)
 Zulu
(UTC)
Morning civil twilight04:5509:55
Sunrise05:3210:32
Sunset20:5301:53
Evening civil twilight21:2902:29

Current date and time
Zulu (UTC)  01-Jun-2020 05:57:01
Local (UTC-5)  01-Jun-2020 00:57:01
 
METAR
KFCM 
8nm SE 
010453Z AUTO 16007KT 10SM BKN085 21/09 A3007 RMK AO2 SLP179 T02110089
KMIC 
14nm NE 
010453Z AUTO 17011KT 10SM OVC085 22/08 A3006 RMK AO2 SLP175 T02170083
KMSP 
16nm E 
010453Z 16007KT 10SM OVC090 22/09 A3008 RMK AO2 SLP185 T02220089
KCFE 
18nm NW 
010536Z 10SM OVC075 21/08 A3006 RMK AO2 T02060076
KSGS 
20nm E 
010536Z AUTO 15005KT 10SM SCT085 20/10 A3008 RMK AO2 T02000100
TAF
KMSP 
16nm E 
010212Z 0102/0206 16009KT P6SM BKN070 FM010700 16009KT P6SM BKN045 WS020/20040KT FM011200 18012G20KT P6SM BKN035 FM011800 22010G20KT P6SM SCT035 FM020000 24008KT P6SM SKC
NOTAMs
Click for the latest NOTAMs
NOTAMs are issued by the DoD/FAA and will open in a separate window not controlled by AirNav.

 

 
 

Would you like to see your business listed on this page?

 If your business provides an interesting product or service to pilots, flight crews, aircraft, or users of the Wildhurst Pines Seaplane Base, you should consider listing it here.  To start the listing process, click on the button below
 
Add a business
 

Other Pages about Wildhurst Pines Seaplane Base

Update a link
 
Copyright © AirNav, LLC. All rights reserved. Privacy Policy  Contact